Regional Weather Roundup
Issued by NWS Upton, NY

Current Version | Previous Version | Graphics & Text | Print | Product List | Glossary Off
Versions: 1 2 3 4 5 6 7 8 9 10 11 12 13 14 15 16 17 18 19 20 21 22 23 24 25 26 27 28 29 30 31 32 33 34 35 36 37 38 39 40 41 42 43 44 45 46 47 48 49 50

000
ASUS41 KOKX 210405
RWROKX

REGIONAL WEATHER ROUNDUP
NATIONAL WEATHER SERVICE NEW YORK NY
1100 PM EST SAT DEC 20 2014

NOTE: "FAIR" INDICATES FEW OR NO CLOUDS BELOW 12,000 FEET WITH NO
SIGNIFICANT WEATHER AND/OR OBSTRUCTIONS TO VISIBILITY.

NYZ071-072-176-178-NJZ106-104-210500-
NEW YORK CITY METRO AREA


CITY           SKY/WX    TMP DP  RH WIND       PRES   REMARKS
CENTRAL PARK   CLOUDY    32  21  64 CALM      30.31S
LAGUARDIA APRT CLOUDY    32  22  66 NE3       30.30S
KENNEDY INTL   CLOUDY    34  21  59 N6        30.30F WCI  29
NEWARK/LIBERTY CLOUDY    32  22  66 N6        30.29F WCI  26
BRNX BOT. GARD   N/A    N/A N/A N/A CALM      30.30R
TETERBORO      CLOUDY    32  21  64 N3        30.29F
$$

NYZ177-179-078>081-210500-
LONG ISLAND NEW YORK

CITY           SKY/WX    TMP DP  RH WIND       PRES   REMARKS
FARMINGDALE    CLOUDY    33  22  63 NW5       30.29S WCI  29
ISLIP          CLOUDY    33  24  69 CALM      30.26F
SHIRLEY        CLOUDY    33  26  75 CALM      30.28F
WESTHAMPTON    CLOUDY    33  28  81 CALM      30.29F
MONTAUK POINT    N/A     38  32  79 N7        30.27F WCI  33
$$

NYZ052-065-067-210500-
HUDSON VALLEY

CITY           SKY/WX    TMP DP  RH WIND       PRES   REMARKS
WHITE PLAINS   CLOUDY    30  22  72 N3        30.26F
NEWBURGH       NOT AVBL
MONTGOMERY     CLOUDY    28  23  81 NE5       30.26F WCI  23
POUGHKEEPSIE   CLOUDY    30  21  69 CALM      30.29F
ALBANY         CLOUDY    28  20  71 N5        30.32S WCI  23
$$

NJZ001-105-106-008-010-013-015-019>022-104-210500-
NEW JERSEY

CITY           SKY/WX    TMP DP  RH WIND       PRES   REMARKS
NEWARK/LIBERTY CLOUDY    32  22  66 N6        30.29F WCI  26
TETERBORO      CLOUDY    32  21  64 N3        30.29F
CALDWELL       CLOUDY    31  22  69 CALM      30.29S
MORRISTOWN     CLOUDY    34  21  60 CALM      30.29S
SOMERVILLE     CLOUDY    31  23  72 CALM      30.28S
SUSSEX         CLOUDY    29  22  75 CALM      30.27S
ANDOVER          N/A     29  20  69 CALM      30.27R
TRENTON        CLOUDY    30  21  69 NW3       30.29R
MILLVILLE      CLOUDY    28  24  85 CALM      30.31R
ATLANTIC CITY  CLOUDY    28  22  78 CALM      30.30S
WRIGHTSTOWN    CLOUDY    28  22  77 MISG      30.27S
TOMS RIVER     CLEAR     23  19  86 CALM      30.30R
BELMAR         CLOUDY    30  19  64 NW5       30.28R WCI  25
$$

PAZ047>061-062-071-210500-
EASTERN PENNSYLVANIA

CITY           SKY/WX    TMP DP  RH WIND       PRES   REMARKS
PHILADELPHIA   CLOUDY    34  22  61 S3        30.32R
ALLENTOWN      CLOUDY    31  20  63 CALM      30.29R
SCRANTON       CLOUDY    30  19  63 W3        30.26R
$$

CTZ002-004>006-009-010-012-RIZ004-006-007-MAZ004-011-015-210500-
SOUTHERN NEW ENGLAND
 IN CT

CITY           SKY/WX    TMP DP  RH WIND       PRES   REMARKS
BRADLEY INTL   CLOUDY    33  26  75 N7        30.28F WCI  27
HARTFORD       CLOUDY    32  25  75 VRB5      30.30R WCI  27
DANBURY        CLOUDY    29  22  75 N3        30.27F
WTRBRY/OXFORD  CLOUDY    30  19  64 CALM      30.26S
BRIDGEPORT     CLOUDY    33  26  75 N6        30.28F WCI  28
MERIDEN        CLOUDY    32  23  69 CALM      30.28F
NEW HAVEN      CLOUDY    35  23  61 N3        30.29S
CHESTER        CLOUDY    32  27  80 CALM      30.27S
GROTON         CLOUDY    33  29  85 N6        30.27S WCI  28
WILLIMANTIC    CLOUDY    33  26  75 NE7       30.27F WCI  27

 IN RI

CITY           SKY/WX    TMP DP  RH WIND       PRES   REMARKS
PROVIDENCE     LGT SNOW  32  30  92 N8        30.29R FOG     WCI  25
BLOCK ISLAND   CLOUDY    36  30  80 NE9G16    30.25S WCI  29
WESTERLY       CLOUDY    34  29  82 N6        30.27S WCI  29

 IN MA

CITY           SKY/WX    TMP DP  RH WIND       PRES   REMARKS
BOSTON         FLURRIES  35  27  72 N7        30.30R WCI  29
WORCESTER      CLOUDY    28  25  88 NE7       30.25S WCI  21
WESTFIELD      CLOUDY    32  26  78 N6        30.29S WCI  26
PROVINCETOWN   CLOUDY    39  30  70 NE16G23   30.28R WCI  30
NANTUCKET      LGT RAIN  40  36  86 NE9       30.24S FOG     WCI  34
$$

ANZ330-335-338-340-345-350-353-355-210500-
COASTAL MARINE OBSERVATIONS


STATION/POSITION TIME  SKY/WX   TEMP    WIND        PRES    VSBY  WAVE
                                AIR SEA DIR/SP/G                  HT/PER
                 (UTC)          (F)     (DEG/KT/KT) (MB)    (MI)  (FT/S)
NY HARB ENTRANCE 0400            35 45  260/  2/  4 1026.0          1
4S FIRE IS       0400               45                N/A           1/11
20S FIRE ISLAND  0300            36 49              1026.4          1/11
23SW MTP         0400                                 N/A           2/ 5
HUDSON CANYON    0400            39 54  330/ 10/ 14 1024.6          2/ 3
EXECUTION ROCKS  0400            33 41  330/  6/  8   N/A
WESTERN LI SOUND 0400            33     330/  6/  8   N/A           0
CENTRAL LI SOUND 0300            34 44  330/  4/  6   N/A           0
EASTERN LI SOUND NOT AVBL
ROBBINS REEF     0400            32        CALM     1024.4
$$


>>>>>>>>>>>>>>>>>>>>>>>>>>>> KEY <<<<<<<<<<<<<<<<<<<<<<<<<<<
>                                                          <
>     SKY/WX - SKY CONDITION/PRESENT WEATHER               <
>     TMP    - TEMPERATURE IN FAHRENHEIT                   <
>     DP     - DEWPOINT IN FAHRENHEIT                      <
>     RH     - RELATIVE HUMIDITY IN PERCENT                <
>     WIND   - DIRECTION AND SPEED IN MPH                  <
>     PRES   - MEAN SEA LEVEL PRESSURE IN INCHES OF HG     <
>     WCI    - WIND CHILL INDEX                            <
>     VSB    - VISIBILITY IN MILES                         <
>     HX     - HEAT INDEX                                  <
>     TC     - TEMPERATURE IN CELSIUS                      <
>     VRB    - VARIABLE WIND DIRECTION                     <
>                                                          <
>>>>>>>>>>>>>>>>>>>>>>>>>>>> KEY <<<<<<<<<<<<<<<<<<<<<<<<<<<




USA.gov is the U.S. government's official web portal to all federal, state and local government web resources and services.